This is the latest recevied weather packets stored in our database for station/object KN6WGU. If no packets are shown the sender has not sent any weather packets the latest 10 day(s).
| Time | Temp. | Humidity | Pressure | Rain* | Wind** | Luminosity | Snow |
|---|---|---|---|---|---|---|---|
| 1787416872 | 25.56° C | 80% | 1004.4 hPa | 0 mm | - | 189 W/m² | - |
| 1787416567 | 25° C | 80% | 1004.7 hPa | 0 mm | - | 246 W/m² | - |
| 1787416262 | 25.56° C | 79% | 1004.5 hPa | 0 mm | - | 116 W/m² | - |
| 1787415957 | 25.56° C | 79% | 1004.5 hPa | 0 mm | - | 170 W/m² | - |
| 1787415656 | 25.56° C | 79% | 1004.6 hPa | 0 mm | - | 179 W/m² | - |
| 1787415352 | 25.56° C | 78% | 1004.8 hPa | 0 mm | - | 160 W/m² | - |
| 1787415047 | 25.56° C | 80% | 1004.9 hPa | 0 mm | - | 214 W/m² | - |
| 1787414743 | 26.11° C | 78% | 1004.8 hPa | 0 mm | - | 177 W/m² | - |
| 1787414438 | 26.67° C | 76% | 1004.9 hPa | 0 mm | - | 156 W/m² | - |
| 1787414131 | 26.67° C | 73% | 1004.9 hPa | 0 mm | - | 178 W/m² | - |
| 1787413831 | 26.67° C | 75% | 1004.8 hPa | 0 mm | - | 197 W/m² | - |
| 1787413526 | 26.11° C | 76% | 1005 hPa | 0 mm | - | 268 W/m² | - |
| 1787413221 | 26.11° C | 76% | 1005.1 hPa | 0 mm | - | 192 W/m² | - |
| 1787412917 | 26.11° C | 76% | 1005.2 hPa | 0 mm | - | 213 W/m² | - |
| 1787412613 | 26.11° C | 76% | 1005.2 hPa | 0 mm | - | 162 W/m² | - |
| 1787412307 | 26.11° C | 77% | 1005.1 hPa | 0 mm | - | 227 W/m² | - |
| 1787412003 | 25.56° C | 77% | 1005.1 hPa | 0 mm | - | 185 W/m² | - |
| 1787411701 | 25.56° C | 77% | 1005.1 hPa | 0 mm | - | 186 W/m² | - |
| 1787411395 | 25.56° C | 77% | 1005.2 hPa | 0 mm | - | 210 W/m² | - |
| 1787411091 | 25.56° C | 77% | 1005.3 hPa | 0 mm | - | 236 W/m² | - |
| 1787410787 | 25° C | 77% | 1005.2 hPa | 0 mm | - | 173 W/m² | - |
| 1787410482 | 25° C | 78% | 1005.2 hPa | 0 mm | - | 115 W/m² | - |
| 1787410177 | 25° C | 79% | 1005.5 hPa | 0 mm | - | 101 W/m² | - |
| 1787409874 | 25° C | 79% | 1005.5 hPa | 0 mm | - | 91 W/m² | - |
| 1787409569 | 25° C | 79% | 1005.3 hPa | 0 mm | - | 89 W/m² | - |
* Rain latest hour (hover to see other rain measurements)
** Current wind speed in m/s (hover to see current wind gust speed)